SAS40G ESSA-EKCH

Flight info

Callsign SAS40G
Flight time N/A
Altitude 38000
Route PETEV N872 ELPAX DCT TOKSI N872 ERNOV
Aircraft A20N/M-SDE3FGIJ1RWXY/ALB1

Departure

Time N/A
Airport Stockholm-Arlanda Airport (ESSA)

Arrival

Time 2026-05-03 21:06
Airport Copenhagen Kastrup Airport (EKCH)
Time Latitude Longitude Altitude Speed Heading
2026-05-03 20:15 59.12695 16.99183 26574 ft 374 kts 225°
2026-05-03 20:15 59.10863 16.96137 27007 ft 376 kts 225°
2026-05-03 20:15 59.08881 16.92845 27427 ft 379 kts 225°
2026-05-03 20:15 59.06874 16.89515 27862 ft 381 kts 225°
2026-05-03 20:16 59.04859 16.86177 28253 ft 384 kts 225°
2026-05-03 20:16 59.02829 16.82821 28618 ft 387 kts 226°
2026-05-03 20:16 59.00787 16.79451 28987 ft 389 kts 225°
2026-05-03 20:16 58.98719 16.76040 29368 ft 391 kts 226°
2026-05-03 20:17 58.96635 16.72612 29694 ft 394 kts 226°
2026-05-03 20:17 58.94552 16.69188 30027 ft 396 kts 226°
2026-05-03 20:17 58.92473 16.65781 30340 ft 398 kts 226°
2026-05-03 20:17 58.90350 16.62301 30759 ft 397 kts 226°
2026-05-03 20:18 58.88248 16.58870 31200 ft 396 kts 226°
2026-05-03 20:18 58.86151 16.55445 31646 ft 394 kts 226°
2026-05-03 20:18 58.84087 16.52085 32093 ft 392 kts 226°
2026-05-03 20:18 58.82009 16.48704 32461 ft 392 kts 225°
2026-05-03 20:19 58.79930 16.45328 32822 ft 391 kts 226°
2026-05-03 20:19 58.77864 16.41979 33170 ft 391 kts 226°
2026-05-03 20:19 58.75800 16.38635 33510 ft 390 kts 226°
2026-05-03 20:19 58.73734 16.35294 33886 ft 388 kts 226°
2026-05-03 20:20 58.71662 16.31959 34221 ft 388 kts 225°
2026-05-03 20:20 58.69571 16.28588 34509 ft 388 kts 225°
2026-05-03 20:20 58.67518 16.25282 34802 ft 388 kts 225°
2026-05-03 20:20 58.65459 16.21981 35099 ft 387 kts 225°
2026-05-03 20:21 58.63410 16.18689 35328 ft 386 kts 225°
2026-05-03 20:21 58.61354 16.15394 35545 ft 386 kts 225°
2026-05-03 20:21 58.59311 16.12128 35717 ft 386 kts 225°
2026-05-03 20:21 58.57245 16.08827 35877 ft 387 kts 225°
2026-05-03 20:22 58.55200 16.05569 36032 ft 388 kts 225°
2026-05-03 20:22 58.53126 16.02269 36179 ft 388 kts 225°
2026-05-03 20:22 58.51041 15.98957 36296 ft 390 kts 224°
2026-05-03 20:23 58.46885 15.92370 36499 ft 393 kts 224°
2026-05-03 20:23 58.42693 15.85749 36693 ft 395 kts 224°
2026-05-03 20:23 58.40578 15.82416 36797 ft 396 kts 224°
2026-05-03 20:24 58.38457 15.79078 36932 ft 396 kts 224°
2026-05-03 20:24 58.36334 15.75743 37046 ft 397 kts 224°
2026-05-03 20:24 58.34195 15.72391 37171 ft 399 kts 224°
2026-05-03 20:24 58.32055 15.69038 37272 ft 399 kts 224°
2026-05-03 20:25 58.29905 15.65682 37393 ft 401 kts 224°
2026-05-03 20:25 58.25539 15.58873 37597 ft 402 kts 223°
2026-05-03 20:25 58.23329 15.55437 37704 ft 403 kts 223°
2026-05-03 20:26 58.21134 15.52029 37769 ft 404 kts 223°
2026-05-03 20:26 58.16712 15.45181 37840 ft 405 kts 223°
2026-05-03 20:27 58.12255 15.38302 37829 ft 405 kts 223°
2026-05-03 20:27 58.07806 15.31460 37837 ft 405 kts 222°
2026-05-03 20:28 58.03384 15.24676 37835 ft 406 kts 223°
2026-05-03 20:28 57.99028 15.18019 37840 ft 405 kts 222°
2026-05-03 20:29 57.94658 15.11361 37831 ft 405 kts 222°
2026-05-03 20:29 57.90244 15.04653 37828 ft 406 kts 222°
2026-05-03 20:30 57.85804 14.97933 37822 ft 406 kts 222°
2026-05-03 20:30 57.81404 14.91295 37809 ft 406 kts 222°
2026-05-03 20:31 57.76996 14.84668 37828 ft 407 kts 222°
2026-05-03 20:31 57.72604 14.78085 37808 ft 408 kts 222°
2026-05-03 20:32 57.68162 14.71447 37819 ft 408 kts 222°
2026-05-03 20:32 57.63736 14.64850 37842 ft 407 kts 222°
2026-05-03 20:33 57.59297 14.58263 37825 ft 408 kts 222°
2026-05-03 20:33 57.54787 14.51592 37835 ft 408 kts 222°
2026-05-03 20:34 57.50356 14.45054 37826 ft 408 kts 221°
2026-05-03 20:34 57.45922 14.38532 37836 ft 408 kts 222°
2026-05-03 20:35 57.41458 14.31991 37837 ft 408 kts 221°
2026-05-03 20:35 57.36895 14.25324 37845 ft 409 kts 221°
2026-05-03 20:36 57.32376 14.18739 37851 ft 409 kts 221°
2026-05-03 20:36 57.27923 14.12279 37827 ft 410 kts 221°
2026-05-03 20:37 57.23458 14.05814 37696 ft 409 kts 221°
2026-05-03 20:37 57.21238 14.02613 37440 ft 407 kts 221°
2026-05-03 20:37 57.19005 13.99396 37082 ft 404 kts 221°
2026-05-03 20:37 57.16759 13.96165 36656 ft 401 kts 221°
2026-05-03 20:38 57.14572 13.93020 36195 ft 400 kts 220°
2026-05-03 20:38 57.12380 13.89872 35584 ft 401 kts 220°
2026-05-03 20:38 57.10210 13.86758 34880 ft 403 kts 220°
2026-05-03 20:38 57.08004 13.83600 34050 ft 403 kts 220°
2026-05-03 20:39 57.05820 13.80484 33311 ft 401 kts 220°
2026-05-03 20:39 57.03636 13.77370 32593 ft 399 kts 220°
2026-05-03 20:39 57.01457 13.74269 31863 ft 400 kts 220°
2026-05-03 20:39 56.99245 13.71123 31081 ft 402 kts 220°
2026-05-03 20:40 56.97036 13.67989 30288 ft 403 kts 220°
2026-05-03 20:40 56.94845 13.64886 29596 ft 401 kts 219°
2026-05-03 20:40 56.92660 13.61794 29121 ft 401 kts 219°
2026-05-03 20:40 56.90478 13.58713 28621 ft 398 kts 219°
2026-05-03 20:41 56.88260 13.55583 28099 ft 395 kts 219°
2026-05-03 20:41 56.86111 13.52561 27579 ft 392 kts 219°
2026-05-03 20:41 56.83952 13.49527 27055 ft 388 kts 219°
2026-05-03 20:41 56.81841 13.46564 26542 ft 385 kts 219°
2026-05-03 20:42 56.79733 13.43605 26021 ft 381 kts 219°
2026-05-03 20:42 56.77647 13.40688 25512 ft 378 kts 219°
2026-05-03 20:42 56.75577 13.37797 24986 ft 375 kts 219°
2026-05-03 20:42 56.73552 13.34968 24470 ft 372 kts 218°
2026-05-03 20:43 56.71488 13.32092 23939 ft 370 kts 218°
2026-05-03 20:43 56.69471 13.29282 23438 ft 367 kts 218°
2026-05-03 20:43 56.67419 13.26431 22915 ft 366 kts 218°
2026-05-03 20:43 56.65367 13.23582 22394 ft 364 kts 218°
2026-05-03 20:44 56.63348 13.20783 21880 ft 362 kts 218°
2026-05-03 20:44 56.61300 13.17943 21359 ft 360 kts 218°
2026-05-03 20:44 56.59279 13.15149 20849 ft 358 kts 218°
2026-05-03 20:44 56.57272 13.12381 20343 ft 356 kts 218°
2026-05-03 20:45 56.55239 13.09576 19821 ft 354 kts 219°
2026-05-03 20:45 56.53235 13.06814 19289 ft 352 kts 218°
2026-05-03 20:45 56.51238 13.04068 18769 ft 350 kts 218°
2026-05-03 20:45 56.49259 13.01350 18257 ft 348 kts 218°
2026-05-03 20:46 56.47306 12.98672 17747 ft 346 kts 218°
2026-05-03 20:46 56.45344 12.95985 17219 ft 345 kts 218°
2026-05-03 20:46 56.43393 12.93316 16684 ft 343 kts 218°
2026-05-03 20:46 56.41460 12.90675 16161 ft 342 kts 218°
2026-05-03 20:47 56.39576 12.88104 15652 ft 340 kts 218°
2026-05-03 20:47 56.37674 12.85510 15148 ft 338 kts 218°
2026-05-03 20:47 56.35763 12.82908 14634 ft 336 kts 218°
2026-05-03 20:47 56.33874 12.80341 14126 ft 334 kts 218°
2026-05-03 20:48 56.32004 12.77805 13623 ft 332 kts 218°
2026-05-03 20:48 56.30153 12.75295 13130 ft 330 kts 218°
2026-05-03 20:48 56.28273 12.72750 12624 ft 328 kts 218°
2026-05-03 20:48 56.26480 12.70326 12141 ft 325 kts 218°
2026-05-03 20:49 56.24673 12.67886 11657 ft 323 kts 218°
2026-05-03 20:49 56.22919 12.65521 11404 ft 312 kts 218°
2026-05-03 20:49 56.21217 12.63228 11246 ft 299 kts 218°
2026-05-03 20:49 56.19593 12.61043 11088 ft 288 kts 218°
2026-05-03 20:50 56.18015 12.58949 10941 ft 276 kts 215°
2026-05-03 20:50 56.16356 12.57350 10814 ft 266 kts 204°
2026-05-03 20:50 56.14603 12.56325 10824 ft 269 kts 198°
2026-05-03 20:50 56.12789 12.55457 10828 ft 271 kts 197°
2026-05-03 20:51 56.10959 12.54603 10827 ft 271 kts 197°
2026-05-03 20:51 56.09136 12.53755 10828 ft 271 kts 197°
2026-05-03 20:51 56.07310 12.52904 10827 ft 271 kts 197°
2026-05-03 20:51 56.05489 12.52056 10825 ft 271 kts 197°
2026-05-03 20:52 56.03695 12.51220 10821 ft 270 kts 197°
2026-05-03 20:52 56.01895 12.50382 10822 ft 270 kts 197°
2026-05-03 20:52 56.00068 12.49531 10820 ft 270 kts 197°
2026-05-03 20:52 55.98266 12.48690 10819 ft 269 kts 197°
2026-05-03 20:53 55.96454 12.47847 10822 ft 269 kts 197°
2026-05-03 20:53 55.94658 12.47012 10828 ft 269 kts 197°
2026-05-03 20:53 55.92848 12.46165 10827 ft 269 kts 197°
2026-05-03 20:53 55.91031 12.45304 10761 ft 270 kts 197°
2026-05-03 20:54 55.89233 12.44452 10364 ft 271 kts 197°
2026-05-03 20:54 55.85647 12.42762 9625 ft 267 kts 198°
2026-05-03 20:54 55.83875 12.41930 9277 ft 264 kts 198°
2026-05-03 20:55 55.82097 12.41093 8922 ft 262 kts 197°
2026-05-03 20:55 55.80343 12.40267 8577 ft 260 kts 197°
2026-05-03 20:55 55.78616 12.39469 8232 ft 258 kts 195°
2026-05-03 20:55 55.76832 12.39442 7855 ft 263 kts 169°
2026-05-03 20:56 55.75211 12.40949 7492 ft 272 kts 143°
2026-05-03 20:56 55.74010 12.43554 7156 ft 276 kts 131°
2026-05-03 20:56 55.72938 12.46271 6815 ft 274 kts 131°
2026-05-03 20:56 55.71905 12.49062 6480 ft 276 kts 122°
2026-05-03 20:57 55.71541 12.52436 6127 ft 288 kts 88°
2026-05-03 20:57 55.72179 12.55767 5811 ft 291 kts 64°
2026-05-03 20:57 55.73160 12.58941 5476 ft 289 kts 63°
2026-05-03 20:57 55.74115 12.62039 5163 ft 287 kts 63°
2026-05-03 20:58 55.75241 12.64939 4858 ft 286 kts 49°
2026-05-03 20:58 55.76675 12.67399 4886 ft 282 kts 41°
2026-05-03 20:58 55.78138 12.69635 4650 ft 278 kts 41°
2026-05-03 20:58 55.79607 12.71845 4357 ft 275 kts 40°
2026-05-03 20:59 55.81062 12.74021 4050 ft 272 kts 40°
2026-05-03 20:59 55.82497 12.76164 3755 ft 269 kts 40°
2026-05-03 20:59 55.83930 12.78300 3451 ft 267 kts 40°
2026-05-03 20:59 55.85342 12.80398 3147 ft 264 kts 41°
2026-05-03 21:00 55.86538 12.82747 2950 ft 248 kts 68°
2026-05-03 21:00 55.86804 12.84628 2947 ft 235 kts 95°
2026-05-03 21:00 55.86123 12.88173 2958 ft 221 kts 131°
2026-05-03 21:00 55.85016 12.89947 2963 ft 213 kts 154°
2026-05-03 21:01 55.83640 12.90785 2965 ft 208 kts 176°
2026-05-03 21:01 55.82183 12.90905 2968 ft 207 kts 181°
2026-05-03 21:01 55.80746 12.90955 2966 ft 207 kts 181°
2026-05-03 21:01 55.79328 12.91024 2966 ft 207 kts 181°
2026-05-03 21:02 55.77912 12.90572 2960 ft 205 kts 207°
2026-05-03 21:02 55.76782 12.89092 2973 ft 206 kts 221°
2026-05-03 21:02 55.75714 12.87378 2971 ft 206 kts 221°
2026-05-03 21:02 55.74659 12.85655 2968 ft 205 kts 223°
2026-05-03 21:03 55.73624 12.83923 2864 ft 205 kts 222°
2026-05-03 21:03 55.72572 12.82233 2616 ft 205 kts 220°
2026-05-03 21:03 55.71497 12.80561 2333 ft 204 kts 220°
2026-05-03 21:03 55.70434 12.78929 2061 ft 203 kts 219°
2026-05-03 21:04 55.69381 12.77312 1850 ft 195 kts 219°
2026-05-03 21:04 55.68401 12.75801 1600 ft 180 kts 219°
2026-05-03 21:04 55.67481 12.74384 1325 ft 169 kts 220°
2026-05-03 21:04 55.66629 12.73071 1105 ft 157 kts 220°
2026-05-03 21:05 55.65844 12.71861 885 ft 143 kts 220°
2026-05-03 21:05 55.65129 12.70758 691 ft 134 kts 221°
2026-05-03 21:05 55.64423 12.69668 531 ft 133 kts 221°
2026-05-03 21:05 55.63728 12.68596 360 ft 133 kts 222°
2026-05-03 21:06 55.63029 12.67517 181 ft 133 kts 222°
2026-05-03 21:06 55.62329 12.66431 33 ft 133 kts 223°
2026-05-03 21:06 55.61715 12.65469 25 ft 96 kts 220°
2026-05-03 21:06 55.61347 12.64893 27 ft 45 kts 230°
2026-05-03 21:07 55.61225 12.64447 26 ft 36 kts 251°
2026-05-03 21:07 55.61202 12.64150 27 ft 22 kts 306°
2026-05-03 21:07 55.61331 12.64166 27 ft 20 kts 36°
2026-05-03 21:07 55.61447 12.64301 28 ft 19 kts 33°
2026-05-03 21:08 55.61559 12.64430 26 ft 15 kts 35°
2026-05-03 21:08 55.61623 12.64503 26 ft 10 kts 33°
2026-05-03 21:08 55.61689 12.64569 27 ft 10 kts 13°
2026-05-03 21:08 55.61767 12.64554 27 ft 12 kts 349°
2026-05-03 21:09 55.61863 12.64521 26 ft 15 kts 349°
2026-05-03 21:09 55.61955 12.64491 26 ft 12 kts 348°
2026-05-03 21:09 55.62023 12.64466 25 ft 0 kts 349°
2026-05-03 21:09 55.62024 12.64466 25 ft 0 kts 349°
2026-05-03 21:10 55.62033 12.64462 25 ft 2 kts 349°
2026-05-03 21:10 55.62054 12.64456 25 ft 3 kts 350°
2026-05-03 21:10 55.62091 12.64444 25 ft 7 kts 350°
2026-05-03 21:10 55.62152 12.64425 25 ft 10 kts 350°
2026-05-03 21:11 55.62226 12.64400 25 ft 11 kts 349°
2026-05-03 21:11 55.62310 12.64410 25 ft 13 kts 15°
2026-05-03 21:11 55.62397 12.64451 26 ft 13 kts 15°
2026-05-03 21:11 55.62488 12.64476 26 ft 12 kts 334°
2026-05-03 21:12 55.62544 12.64352 26 ft 13 kts 302°
2026-05-03 21:12 55.62593 12.64259 26 ft 9 kts 357°
2026-05-03 21:12 55.62655 12.64306 26 ft 10 kts 22°
2026-05-03 21:12 55.62715 12.64350 26 ft 6 kts 39°
2026-05-03 21:13 55.62723 12.64403 26 ft 4 kts 127°
2026-05-03 21:13 55.62715 12.64425 26 ft 0 kts 114°
2026-05-03 21:13 55.62714 12.64435 26 ft 1 kts 101°
2026-05-03 21:13 55.62713 12.64440 26 ft 0 kts 101°
2026-05-03 21:14 55.62712 12.64445 26 ft 1 kts 101°
2026-05-03 21:14 55.62712 12.64451 26 ft 0 kts 101°
2026-05-03 21:14 55.62712 12.64450 26 ft 0 kts 101°